| time (UTC) | temp F | wind direction | speed MPH | gust MPH | rain 1hr in | rain 24hr in | rain mn in | humidity % | barometer mb |
| 20260905114556 | 79 | 39 | 0.0 | 4.0 | 0.00 | 0.00 | 0.00 | 64 | 1023.1 |
| 20260905113058 | 79 | 51 | 1.0 | 4.0 | 0.00 | 0.00 | 0.00 | 65 | 1023.2 |
| 20260905111600 | 80 | 46 | 1.0 | 7.0 | 0.00 | 0.00 | 0.00 | 66 | 1023.2 |
| 20260905110107 | 80 | 270 | 0.0 | 5.0 | 0.00 | 0.00 | 0.00 | 66 | 1023.1 |
| 20260905104558 | 79 | 186 | 0.0 | 3.0 | 0.00 | 0.00 | 0.00 | 66 | 1023.1 |
| 20260905103055 | 77 | 328 | 0.0 | 3.0 | 0.00 | 0.00 | 0.00 | 67 | 1023.1 |
| 20260905101546 | 77 | 56 | 1.0 | 5.0 | 0.00 | 0.00 | 0.00 | 67 | 1023.2 |
| 20260905100118 | 77 | 72 | 1.0 | 4.0 | 0.00 | 0.00 | 0.00 | 66 | 1023.1 |
| 20260905094603 | 76 | 63 | 1.0 | 7.0 | 0.00 | 0.00 | 0.00 | 67 | 1023.1 |
| 20260905093100 | 76 | 74 | 0.0 | 3.0 | 0.00 | 0.00 | 0.00 | 68 | 1022.9 |
| 20260905091612 | 76 | 131 | 0.0 | 3.0 | 0.00 | 0.00 | 0.00 | 67 | 1022.9 |
| 20260905090111 | 74 | 344 | 0.0 | 2.0 | 0.00 | 0.00 | 0.00 | 69 | 1022.8 |
| 20260905084600 | 73 | 348 | 0.0 | 3.0 | 0.00 | 0.00 | 0.00 | 69 | 1022.7 |
| 20260905083056 | 74 | 149 | 0.0 | 1.0 | 0.00 | 0.00 | 0.00 | 67 | 1022.7 |
| 20260905081605 | 73 | 325 | 0.0 | 1.0 | 0.00 | 0.00 | 0.00 | 69 | 1022.9 |
| 20260905080057 | 71 | 245 | 0.0 | 1.0 | 0.00 | 0.00 | 0.00 | 72 | 1022.8 |
| 20260905074608 | 69 | 252 | 0.0 | 1.0 | 0.00 | 0.00 | 0.00 | 72 | 1022.8 |
| 20260905073052 | 66 | 225 | 0.0 | 1.0 | 0.00 | 0.00 | 0.00 | 74 | 1022.7 |
| 20260905071555 | 65 | 200 | 0.0 | 3.0 | 0.00 | 0.00 | 0.00 | 76 | 1022.5 |
| 20260905070101 | 62 | 231 | 0.0 | 4.0 | 0.00 | 0.00 | 0.00 | 80 | 1022.4 |
| 20260905064545 | 61 | 236 | 0.0 | 1.0 | 0.00 | 0.00 | 0.00 | 81 | 1022.2 |
| 20260905063106 | 60 | 236 | 0.0 | 4.0 | 0.00 | 0.00 | 0.00 | 83 | 1022.2 |
| 20260905061556 | 58 | 222 | 0.0 | 1.0 | 0.00 | 0.00 | 0.00 | 86 | 1022.2 |
| 20260905060056 | 57 | 223 | 0.0 | 4.0 | 0.00 | 0.00 | 0.00 | 86 | 1022.0 |
| 20260905054600 | 57 | 238 | 0.0 | 2.0 | 0.00 | 0.00 | 0.00 | 87 | 1021.9 |
| 20260905053057 | 56 | 207 | 0.0 | 1.0 | 0.00 | 0.00 | 0.00 | 86 | 1021.5 |
| 20260905051548 | 57 | 193 | 0.0 | 3.0 | 0.00 | 0.00 | 0.00 | 86 | 1021.3 |
| 20260905050109 | 57 | 216 | 0.0 | 2.0 | 0.00 | 0.00 | 0.00 | 85 | 1021.1 |
| 20260905044553 | 56 | 228 | 1.0 | 6.0 | 0.00 | 0.00 | 0.00 | 86 | 1021.1 |
| 20260905043053 | 56 | 234 | 0.0 | 2.0 | 0.00 | 0.00 | 0.00 | 87 | 1021.1 |
| 20260905041602 | 56 | 200 | 0.0 | 2.0 | 0.00 | 0.00 | 0.00 | 86 | 1021.2 |
| 20260905040104 | 56 | 241 | 0.0 | 1.0 | 0.00 | 0.00 | 0.00 | 86 | 1021.2 |
| 20260905034553 | 57 | 260 | 0.0 | 1.0 | 0.00 | 0.00 | 0.00 | 85 | 1021.0 |
| 20260905033053 | 58 | 217 | 0.0 | 2.0 | 0.00 | 0.00 | 0.00 | 83 | 1021.0 |
| 20260905031609 | 58 | 248 | 0.0 | 3.0 | 0.00 | 0.00 | 0.00 | 83 | 1020.9 |
| 20260905030049 | 58 | 233 | 0.0 | 2.0 | 0.00 | 0.00 | 0.00 | 84 | 1021.0 |
| 20260905024603 | 58 | 224 | 0.0 | 4.0 | 0.00 | 0.00 | 0.00 | 83 | 1020.8 |
| 20260905023053 | 58 | 258 | 0.0 | 2.0 | 0.00 | 0.00 | 0.00 | 83 | 1020.7 |
| 20260905021601 | 58 | 275 | 0.0 | 1.0 | 0.00 | 0.00 | 0.00 | 83 | 1020.7 |
| 20260905020051 | 58 | 269 | 0.0 | 1.0 | 0.00 | 0.00 | 0.00 | 83 | 1020.7 |
| 20260905014553 | 58 | 199 | 0.0 | 3.0 | 0.00 | 0.00 | 0.00 | 83 | 1020.5 |
| 20260905013049 | 58 | 242 | 0.0 | 5.0 | 0.00 | 0.00 | 0.00 | 83 | 1020.5 |
| 20260905011553 | 58 | 171 | 0.0 | 1.0 | 0.00 | 0.00 | 0.00 | 82 | 1020.4 |
| 20260905010103 | 59 | 215 | 0.0 | 1.0 | 0.00 | 0.00 | 0.00 | 81 | 1020.5 |
| 20260905004556 | 59 | 303 | 0.0 | 1.0 | 0.00 | 0.00 | 0.00 | 81 | 1020.3 |
| 20260905003103 | 60 | 290 | 0.0 | 1.0 | 0.00 | 0.00 | 0.00 | 79 | 1020.4 |
| 20260905001511 | 60 | 151 | 0.0 | 1.0 | 0.00 | 0.00 | 0.00 | 78 | 1020.4 |
| 20260904234559 | 61 | 283 | 0.0 | 1.0 | 0.00 | 0.00 | 0.00 | 78 | 1020.4 |
| 20260904233103 | 61 | 276 | 0.0 | 3.0 | 0.00 | 0.00 | 0.00 | 77 | 1020.5 |
| 20260904231554 | 61 | 154 | 0.0 | 2.0 | 0.00 | 0.00 | 0.00 | 77 | 1020.5 |
| 20260904230111 | 62 | 262 | 0.0 | 0.0 | 0.00 | 0.00 | 0.00 | 75 | 1020.4 |
| 20260904224557 | 63 | 271 | 0.0 | 1.0 | 0.00 | 0.00 | 0.00 | 73 | 1020.3 |
| 20260904223107 | 64 | 271 | 0.0 | 1.0 | 0.00 | 0.00 | 0.00 | 71 | 1020.1 |
| 20260904221600 | 65 | 261 | 0.0 | 1.0 | 0.00 | 0.00 | 0.00 | 69 | 1020.0 |
| 20260904220002 | 66 | 208 | 0.0 | 1.0 | 0.00 | 0.00 | 0.00 | 67 | 1019.9 |
| 20260904214554 | 67 | 212 | 0.0 | 1.0 | 0.00 | 0.00 | 0.00 | 64 | 1019.9 |
| 20260904213046 | 67 | 213 | 0.0 | 1.0 | 0.00 | 0.00 | 0.00 | 65 | 1019.8 |
| 20260904211545 | 67 | 259 | 0.0 | 1.0 | 0.00 | 0.00 | 0.00 | 64 | 1019.8 |
| 20260904210049 | 68 | 252 | 0.0 | 1.0 | 0.00 | 0.00 | 0.00 | 63 | 1019.7 |
| 20260904204559 | 69 | 139 | 0.0 | 1.0 | 0.00 | 0.00 | 0.00 | 61 | 1019.5 |
| 20260904203050 | 71 | 136 | 0.0 | 1.0 | 0.00 | 0.00 | 0.00 | 57 | 1019.4 |
| 20260904201559 | 72 | 136 | 0.0 | 1.0 | 0.00 | 0.00 | 0.00 | 55 | 1019.3 |
| 20260904200113 | 74 | 187 | 0.0 | 1.0 | 0.00 | 0.00 | 0.00 | 52 | 1019.1 |
| 20260904194606 | 76 | 255 | 0.0 | 3.0 | 0.00 | 0.00 | 0.00 | 49 | 1019.0 |
| 20260904193057 | 77 | 250 | 0.0 | 4.0 | 0.00 | 0.00 | 0.00 | 49 | 1018.8 |
| 20260904191553 | 78 | 245 | 0.0 | 4.0 | 0.00 | 0.00 | 0.00 | 48 | 1018.5 |
| 20260904190056 | 78 | 273 | 0.0 | 2.0 | 0.00 | 0.00 | 0.00 | 46 | 1018.2 |
| 20260904184606 | 80 | 264 | 0.0 | 4.0 | 0.00 | 0.00 | 0.00 | 44 | 1017.9 |
| 20260904183047 | 81 | 262 | 0.0 | 6.0 | 0.00 | 0.00 | 0.00 | 41 | 1017.7 |
| 20260904181551 | 83 | 268 | 2.0 | 6.0 | 0.00 | 0.00 | 0.00 | 39 | 1017.4 |
| 20260904180114 | 85 | 257 | 2.0 | 4.0 | 0.00 | 0.00 | 0.00 | 37 | 1017.3 |
| 20260904174613 | 87 | 269 | 2.0 | 6.0 | 0.00 | 0.00 | 0.00 | 35 | 1017.0 |
| 20260904173051 | 88 | 259 | 1.0 | 8.0 | 0.00 | 0.00 | 0.00 | 34 | 1016.9 |
| 20260904171548 | 88 | 258 | 3.0 | 7.0 | 0.00 | 0.00 | 0.00 | 34 | 1016.8 |
| 20260904170106 | 89 | 252 | 2.0 | 11.0 | 0.00 | 0.00 | 0.00 | 33 | 1016.8 |
| 20260904164557 | 90 | 243 | 3.0 | 8.0 | 0.00 | 0.00 | 0.00 | 32 | 1016.9 |
| 20260904163055 | 90 | 188 | 3.0 | 9.0 | 0.00 | 0.00 | 0.00 | 32 | 1016.7 |
| 20260904161553 | 91 | 321 | 4.0 | 10.0 | 0.00 | 0.00 | 0.00 | 32 | 1016.7 |
| 20260904160110 | 91 | 280 | 6.0 | 12.0 | 0.00 | 0.00 | 0.00 | 32 | 1016.8 |
| 20260904154601 | 92 | 238 | 5.0 | 12.0 | 0.00 | 0.00 | 0.00 | 31 | 1016.7 |
| 20260904153107 | 93 | 229 | 3.0 | 10.0 | 0.00 | 0.00 | 0.00 | 34 | 1016.8 |
| 20260904151607 | 94 | 276 | 2.0 | 7.0 | 0.00 | 0.00 | 0.00 | 33 | 1016.6 |
| 20260904150105 | 93 | 243 | 3.0 | 11.0 | 0.00 | 0.00 | 0.00 | 34 | 1016.6 |
| 20260904144603 | 94 | 286 | 4.0 | 9.0 | 0.00 | 0.00 | 0.00 | 33 | 1016.5 |
| 20260904143105 | 94 | 214 | 2.0 | 9.0 | 0.00 | 0.00 | 0.00 | 34 | 1016.6 |
| 20260904141558 | 94 | 267 | 2.0 | 7.0 | 0.00 | 0.00 | 0.00 | 33 | 1016.7 |
| 20260904140104 | 94 | 202 | 5.0 | 12.0 | 0.00 | 0.00 | 0.00 | 33 | 1016.9 |
| 20260904134553 | 93 | 271 | 4.0 | 10.0 | 0.00 | 0.00 | 0.00 | 33 | 1016.9 |
| 20260904133108 | 94 | 171 | 2.0 | 8.0 | 0.00 | 0.00 | 0.00 | 34 | 1017.1 |
| 20260904131553 | 93 | 248 | 3.0 | 8.0 | 0.00 | 0.00 | 0.00 | 36 | 1017.2 |
| 20260904130104 | 93 | 264 | 4.0 | 12.0 | 0.00 | 0.00 | 0.00 | 33 | 1017.5 |
| 20260904124553 | 93 | 269 | 4.0 | 10.0 | 0.00 | 0.00 | 0.00 | 35 | 1017.5 |
| 20260904123048 | 94 | 205 | 2.0 | 9.0 | 0.00 | 0.00 | 0.00 | 34 | 1017.8 |
| 20260904121548 | 92 | 235 | 2.0 | 9.0 | 0.00 | 0.00 | 0.00 | 33 | 1017.9 |
| 20260904120111 | 92 | 227 | 4.0 | 8.0 | 0.00 | 0.00 | 0.00 | 34 | 1018.2 |